Regional Weather Roundup
Issued by NWS

Home | Current Version | Previous Version | Graphics & Text | Print | Product List | Glossary On
Versions: 1 2 3 4 5 6 7 8 9 10 11 12 13 14 15 16 17 18 19 20 21 22 23 24 25 26 27 28 29 30 31 32 33 34 35 36 37 38 39 40 41 42 43 44 45 46 47 48 49 50
000
ASUS43 KFSD 112110
RWRSD

WEATHER ROUNDUP FOR SOUTH DAKOTA
NATIONAL WEATHER SERVICE SIOUX FALLS SD
400 PM CDT FRI JUL 11 2014

NOTE: "FAIR" INDICATES FEW OR NO CLOUDS BELOW 12,000 FEET WITH NO
SIGNIFICANT WEATHER AND/OR OBSTRUCTIONS TO VISIBILITY.


SDZ001>005-009-010-012>017-112200-
NORTHWEST AND NORTH CENTRAL SOUTH DAKOTA

CITY           SKY/WX    TMP DP  RH WIND       PRES   REMARKS
BUFFALO          N/A     84  55  36 E17       30.01F
FAITH            N/A     85  63  47 NE17      30.04F
MOBRIDGE       MOSUNNY   87  64  46 N12G21    29.98S
$$

SDZ012>016-024>037-041>051-057-063-072>074-112200-
SOUTHWEST AND SOUTH CENTRAL SOUTH DAKOTA

CITY           SKY/WX    TMP DP  RH WIND       PRES   REMARKS
RAPID CTY ARPT CLOUDY    79  66  64 NE8       30.06R
PIERRE         MOSUNNY   91  67  44 VRB5      29.94F
CUSTER         LGT RAIN  66  56  70 N10       30.21F
ELLSWORTH AFB  PTSUNNY   81  67  63 NE6       30.06S
PHILIP         MOSUNNY   89  66  46 NE10      29.98S
PINE RIDGE     PTSUNNY   85  62  46 NE12      30.03S
WINNER         FAIR      93  64  38 E12       29.96S
$$

SDZ004>011-016>023-039-040-112200-
NORTHEAST SOUTH DAKOTA

CITY           SKY/WX    TMP DP  RH WIND       PRES   REMARKS
ABERDEEN       SUNNY     86  67  52 NE13      29.96R
WATERTOWN      MOSUNNY   88  64  44 VRB3      29.95S
SISSETON         N/A     89  67  47 N10G16    29.92S
$$

SDZ017-020-022-023-036>040-048>070-112200-
SOUTHEAST SOUTH DAKOTA

CITY           SKY/WX    TMP DP  RH WIND       PRES   REMARKS
SIOUX FALLS    PTSUNNY   83  72  69 NW5       29.97R
HURON          SUNNY     93  63  36 NE3       29.92S
CHAMBERLAIN    PTSUNNY   90  63  41 NE8       29.95R
MITCHELL       SUNNY     87  75  67 SE9       29.94R HX  96
YANKTON        PTSUNNY   82  73  74 SE7       29.97R
$$

ABBREVIATIONS USED IN REMARKS
   TC - TEMPERATURE IN CELSIUS
  WCI - WIND CHILL INDEX
   HX - HEAT INDEX
  VSB - VISIBILITY



USA.gov is the U.S. government's official web portal to all federal, state and local government web resources and services.